AUL152 ULLI-ULAA

Flight info

Callsign AUL152
Flight time 1h 10m
Altitude 35000
Route PETAP T821 MAKOG
Aircraft B738/M-SDE2E3FGHIRWXY/LB1

Departure

Time 2026-05-07 13:48
Airport Pulkovo Airport (ULLI)

Arrival

Time 2026-05-07 14:58
Airport Talagi Airport (ULAA)
Time Latitude Longitude Altitude Speed Heading
2026-05-07 13:04 59.80267 30.26570 0 ft 0 kts 287°
2026-05-07 13:37 59.80259 30.26618 86 ft 4 kts 289°
2026-05-07 13:37 59.80252 30.26652 86 ft 2 kts 309°
2026-05-07 13:37 59.80243 30.26666 86 ft 2 kts 350°
2026-05-07 13:38 59.80232 30.26666 86 ft 2 kts 12°
2026-05-07 13:38 59.80221 30.26661 86 ft 2 kts 16°
2026-05-07 13:38 59.80215 30.26658 86 ft 0 kts 17°
2026-05-07 13:40 59.80219 30.26660 86 ft 1 kts 17°
2026-05-07 13:41 59.80232 30.26668 86 ft 3 kts 17°
2026-05-07 13:41 59.80255 30.26681 84 ft 4 kts 16°
2026-05-07 13:41 59.80289 30.26701 81 ft 6 kts 16°
2026-05-07 13:41 59.80332 30.26725 82 ft 7 kts 16°
2026-05-07 13:42 59.80382 30.26754 86 ft 8 kts 15°
2026-05-07 13:42 59.80419 30.26698 84 ft 8 kts 291°
2026-05-07 13:42 59.80438 30.26581 83 ft 9 kts 287°
2026-05-07 13:42 59.80457 30.26452 82 ft 11 kts 286°
2026-05-07 13:43 59.80480 30.26300 82 ft 12 kts 286°
2026-05-07 13:43 59.80505 30.26128 85 ft 14 kts 286°
2026-05-07 13:43 59.80535 30.25931 75 ft 16 kts 287°
2026-05-07 13:43 59.80565 30.25730 75 ft 13 kts 287°
2026-05-07 13:44 59.80593 30.25542 68 ft 15 kts 286°
2026-05-07 13:44 59.80624 30.25341 69 ft 15 kts 287°
2026-05-07 13:44 59.80656 30.25132 72 ft 15 kts 287°
2026-05-07 13:44 59.80685 30.24938 74 ft 15 kts 287°
2026-05-07 13:45 59.80713 30.24746 70 ft 14 kts 287°
2026-05-07 13:45 59.80763 30.24617 71 ft 11 kts 343°
2026-05-07 13:45 59.80842 30.24579 66 ft 12 kts 347°
2026-05-07 13:45 59.80923 30.24557 63 ft 10 kts
2026-05-07 13:46 59.80961 30.24602 66 ft 6 kts 61°
2026-05-07 13:46 59.80954 30.24684 67 ft 6 kts 109°
2026-05-07 13:46 59.80946 30.24738 68 ft 6 kts 106°
2026-05-07 13:46 59.80939 30.24786 71 ft 0 kts 106°
2026-05-07 13:47 59.80939 30.24789 71 ft 0 kts 106°
2026-05-07 13:47 59.80938 30.24796 71 ft 1 kts 106°
2026-05-07 13:47 59.80896 30.25073 72 ft 55 kts 106°
2026-05-07 13:47 59.80718 30.26265 75 ft 122 kts 107°
2026-05-07 13:48 59.80434 30.28227 211 ft 164 kts 104°
2026-05-07 13:48 59.80122 30.30442 905 ft 168 kts 105°
2026-05-07 13:48 59.79794 30.32565 1947 ft 160 kts 105°
2026-05-07 13:48 59.79461 30.34765 2501 ft 180 kts 104°
2026-05-07 13:49 59.79077 30.37327 2815 ft 205 kts 105°
2026-05-07 13:49 59.78649 30.40165 3209 ft 219 kts 105°
2026-05-07 13:49 59.78210 30.43084 3950 ft 223 kts 105°
2026-05-07 13:49 59.77760 30.46074 4696 ft 228 kts 105°
2026-05-07 13:50 59.77308 30.49076 5640 ft 226 kts 105°
2026-05-07 13:50 59.76888 30.52106 6477 ft 229 kts 96°
2026-05-07 13:50 59.77083 30.55187 7228 ft 234 kts 66°
2026-05-07 13:50 59.78084 30.57759 8061 ft 242 kts 36°
2026-05-07 13:51 59.79592 30.59242 9010 ft 247 kts 20°
2026-05-07 13:51 59.81254 30.60258 9781 ft 251 kts 16°
2026-05-07 13:51 59.82976 30.61024 10432 ft 257 kts
2026-05-07 13:51 59.84708 30.60279 11092 ft 257 kts 330°
2026-05-07 13:52 59.86057 30.57968 11701 ft 263 kts 302°
2026-05-07 13:52 59.86805 30.54601 12264 ft 270 kts 286°
2026-05-07 13:52 59.87341 30.50973 12985 ft 275 kts 285°
2026-05-07 13:52 59.87727 30.47253 13823 ft 275 kts 270°
2026-05-07 13:53 59.87497 30.43498 14606 ft 273 kts 259°
2026-05-07 13:53 59.87133 30.39792 15401 ft 272 kts 259°
2026-05-07 13:53 59.86774 30.36102 16202 ft 271 kts 259°
2026-05-07 13:53 59.86421 30.32411 16993 ft 271 kts 259°
2026-05-07 13:54 59.86069 30.28709 17689 ft 277 kts 259°
2026-05-07 13:54 59.85698 30.24791 17872 ft 298 kts 259°
2026-05-07 13:54 59.85438 30.20634 18368 ft 308 kts 271°
2026-05-07 13:54 59.85909 30.16470 19022 ft 314 kts 289°
2026-05-07 13:55 59.87071 30.12732 19549 ft 329 kts 305°
2026-05-07 13:55 59.88925 30.09736 19641 ft 362 kts 327°
2026-05-07 13:55 59.91337 30.07815 19816 ft 383 kts 334°
2026-05-07 13:55 59.93904 30.06150 20179 ft 392 kts 336°
2026-05-07 13:56 59.96521 30.04552 20734 ft 394 kts 336°
2026-05-07 13:56 59.99152 30.02943 21307 ft 397 kts 336°
2026-05-07 13:56 60.01798 30.01290 21808 ft 400 kts 335°
2026-05-07 13:56 60.04465 29.99587 22316 ft 404 kts 335°
2026-05-07 13:57 60.07149 29.97848 22802 ft 407 kts 334°
2026-05-07 13:57 60.09853 29.96081 23299 ft 411 kts 334°
2026-05-07 13:57 60.12545 29.94315 23755 ft 414 kts 334°
2026-05-07 13:57 60.15293 29.92508 24176 ft 417 kts 334°
2026-05-07 13:58 60.18094 29.90664 24608 ft 419 kts 333°
2026-05-07 13:58 60.20873 29.88833 25018 ft 422 kts 333°
2026-05-07 13:58 60.23673 29.86985 25426 ft 424 kts 333°
2026-05-07 13:58 60.26449 29.85149 25825 ft 427 kts 333°
2026-05-07 13:59 60.29445 29.83915 26167 ft 448 kts 351°
2026-05-07 13:59 60.32557 29.84717 26534 ft 469 kts 11°
2026-05-07 13:59 60.35520 29.87688 26912 ft 486 kts 33°
2026-05-07 13:59 60.37909 29.92590 27247 ft 496 kts 54°
2026-05-07 14:00 60.39744 29.98524 27618 ft 499 kts 59°
2026-05-07 14:00 60.41460 30.04669 27906 ft 503 kts 60°
2026-05-07 14:00 60.43163 30.10892 28195 ft 507 kts 60°
2026-05-07 14:00 60.44897 30.17119 28536 ft 509 kts 59°
2026-05-07 14:01 60.46676 30.23353 28870 ft 511 kts 59°
2026-05-07 14:01 60.48483 30.29571 29181 ft 514 kts 58°
2026-05-07 14:01 60.50319 30.35838 29472 ft 517 kts 58°
2026-05-07 14:01 60.52158 30.42118 29765 ft 519 kts 58°
2026-05-07 14:02 60.54002 30.48442 30056 ft 522 kts 58°
2026-05-07 14:02 60.55852 30.54815 30290 ft 524 kts 59°
2026-05-07 14:02 60.57697 30.61206 30585 ft 524 kts 59°
2026-05-07 14:02 60.59539 30.67600 30960 ft 523 kts 59°
2026-05-07 14:03 60.61376 30.73986 31293 ft 522 kts 59°
2026-05-07 14:03 60.63208 30.80367 31574 ft 523 kts 59°
2026-05-07 14:03 60.65042 30.86775 31851 ft 524 kts 59°
2026-05-07 14:03 60.66875 30.93201 32158 ft 524 kts 59°
2026-05-07 14:04 60.68700 30.99619 32468 ft 524 kts 59°
2026-05-07 14:04 60.70528 31.06064 32740 ft 524 kts 59°
2026-05-07 14:04 60.72352 31.12515 33018 ft 524 kts 59°
2026-05-07 14:04 60.74172 31.18966 33311 ft 524 kts 59°
2026-05-07 14:05 60.75990 31.25432 33600 ft 524 kts 59°
2026-05-07 14:05 60.77807 31.31911 33845 ft 525 kts 59°
2026-05-07 14:05 60.78107 31.32980 33885 ft 525 kts 59°
2026-05-07 14:05 60.79495 31.37945 34085 ft 525 kts 59°
2026-05-07 14:06 60.81305 31.44434 34387 ft 523 kts 59°
2026-05-07 14:06 60.83079 31.50810 34729 ft 520 kts 59°
2026-05-07 14:06 60.84869 31.57257 35038 ft 517 kts 59°
2026-05-07 14:07 60.88450 31.70163 35073 ft 523 kts 59°
2026-05-07 14:07 60.92036 31.83134 35038 ft 519 kts 59°
2026-05-07 14:08 60.95575 31.96003 35064 ft 515 kts 58°
2026-05-07 14:08 60.99882 32.07628 35057 ft 507 kts 40°
2026-05-07 14:09 61.04983 32.17646 35060 ft 506 kts 39°
2026-05-07 14:09 61.10094 32.27667 35066 ft 508 kts 40°
2026-05-07 14:10 61.15137 32.37809 35060 ft 509 kts 40°
2026-05-07 14:10 61.20195 32.48101 35048 ft 511 kts 40°
2026-05-07 14:11 61.25268 32.58454 35062 ft 512 kts 40°
2026-05-07 14:11 61.30378 32.68800 35056 ft 513 kts 40°
2026-05-07 14:12 61.35539 32.79050 35055 ft 513 kts 39°
2026-05-07 14:12 61.40704 32.89377 35054 ft 514 kts 40°
2026-05-07 14:13 61.45851 32.99755 35047 ft 514 kts 40°
2026-05-07 14:13 61.50647 33.10883 35060 ft 517 kts 49°
2026-05-07 14:14 61.55004 33.22884 35046 ft 517 kts 50°
2026-05-07 14:14 61.59323 33.34905 35048 ft 515 kts 50°
2026-05-07 14:15 61.63681 33.46843 35050 ft 514 kts 49°
2026-05-07 14:15 61.68042 33.58742 35052 ft 513 kts 49°
2026-05-07 14:16 61.72382 33.70648 35066 ft 512 kts 49°
2026-05-07 14:16 61.76702 33.82580 35069 ft 511 kts 50°
2026-05-07 14:17 61.80978 33.94456 35077 ft 511 kts 50°
2026-05-07 14:17 61.85273 34.06443 35079 ft 511 kts 50°
2026-05-07 14:18 61.89773 34.18018 35071 ft 505 kts 38°
2026-05-07 14:18 61.95107 34.27615 35079 ft 502 kts 34°
2026-05-07 14:19 62.00534 34.37004 35080 ft 503 kts 34°
2026-05-07 14:19 62.05927 34.46534 35073 ft 505 kts 35°
2026-05-07 14:20 62.11304 34.56206 35078 ft 506 kts 35°
2026-05-07 14:20 62.16674 34.65936 35068 ft 506 kts 35°
2026-05-07 14:21 62.22046 34.75706 35075 ft 507 kts 35°
2026-05-07 14:21 62.27419 34.85519 35069 ft 507 kts 35°
2026-05-07 14:22 62.32784 34.95363 35071 ft 507 kts 36°
2026-05-07 14:22 62.38140 35.05237 35073 ft 507 kts 36°
2026-05-07 14:23 62.43476 35.15193 35067 ft 507 kts 36°
2026-05-07 14:23 62.48766 35.25264 35069 ft 507 kts 37°
2026-05-07 14:24 62.54008 35.35300 35068 ft 506 kts 37°
2026-05-07 14:24 62.59276 35.45412 35068 ft 505 kts 37°
2026-05-07 14:25 62.64568 35.55610 35069 ft 505 kts 37°
2026-05-07 14:25 62.69780 35.65703 35071 ft 505 kts 37°
2026-05-07 14:26 62.75019 35.75900 35066 ft 505 kts 37°
2026-05-07 14:26 62.80241 35.86118 35067 ft 504 kts 37°
2026-05-07 14:27 62.85466 35.96386 35066 ft 504 kts 37°
2026-05-07 14:27 62.90684 36.06646 35066 ft 504 kts 37°
2026-05-07 14:28 62.95925 36.16859 35065 ft 503 kts 36°
2026-05-07 14:28 63.01159 36.27098 35064 ft 503 kts 37°
2026-05-07 14:29 63.06378 36.37383 35062 ft 503 kts 37°
2026-05-07 14:29 63.11593 36.47719 35063 ft 504 kts 37°
2026-05-07 14:30 63.16794 36.58078 35066 ft 504 kts 37°
2026-05-07 14:30 63.21944 36.68641 35062 ft 507 kts 43°
2026-05-07 14:31 63.26475 36.80556 35066 ft 510 kts 47°
2026-05-07 14:31 63.30893 36.92873 35065 ft 509 kts 47°
2026-05-07 14:32 63.35376 37.05111 34787 ft 513 kts 46°
2026-05-07 14:32 63.37657 37.11280 34196 ft 516 kts 46°
2026-05-07 14:32 63.39936 37.17468 33467 ft 517 kts 46°
2026-05-07 14:32 63.42216 37.23684 32748 ft 518 kts 46°
2026-05-07 14:33 63.44493 37.29920 32084 ft 518 kts 46°
2026-05-07 14:33 63.46760 37.36146 31506 ft 516 kts 46°
2026-05-07 14:33 63.49022 37.42376 30947 ft 514 kts 46°
2026-05-07 14:33 63.51266 37.48575 30469 ft 511 kts 46°
2026-05-07 14:34 63.53501 37.54762 29927 ft 509 kts 47°
2026-05-07 14:34 63.55721 37.60926 29394 ft 506 kts 47°
2026-05-07 14:34 63.57177 37.64977 29052 ft 503 kts 47°
2026-05-07 14:34 63.59360 37.71067 28558 ft 499 kts 47°
2026-05-07 14:35 63.61525 37.77123 28085 ft 494 kts 47°
2026-05-07 14:35 63.63666 37.83124 27599 ft 490 kts 47°
2026-05-07 14:35 63.65787 37.89088 27125 ft 486 kts 47°
2026-05-07 14:35 63.67891 37.95016 26651 ft 482 kts 47°
2026-05-07 14:36 63.69976 38.00908 26187 ft 479 kts 47°
2026-05-07 14:36 63.72044 38.06765 25715 ft 475 kts 47°
2026-05-07 14:36 63.74093 38.12582 25262 ft 472 kts 47°
2026-05-07 14:36 63.76127 38.18375 24797 ft 469 kts 47°
2026-05-07 14:37 63.78146 38.24138 24326 ft 466 kts 47°
2026-05-07 14:37 63.82142 38.35592 23327 ft 461 kts 47°
2026-05-07 14:37 63.84114 38.41264 22818 ft 457 kts 47°
2026-05-07 14:38 63.86067 38.46901 22357 ft 452 kts 47°
2026-05-07 14:38 63.87994 38.52475 21900 ft 447 kts 47°
2026-05-07 14:38 63.89904 38.58012 21443 ft 443 kts 47°
2026-05-07 14:38 63.91788 38.63486 20995 ft 438 kts 47°
2026-05-07 14:39 63.93656 38.68927 20553 ft 434 kts 47°
2026-05-07 14:39 63.95502 38.74316 20115 ft 429 kts 47°
2026-05-07 14:39 63.97313 38.79622 19666 ft 418 kts 47°
2026-05-07 14:39 63.99070 38.84784 19239 ft 406 kts 47°
2026-05-07 14:40 64.00792 38.89844 18852 ft 403 kts 47°
2026-05-07 14:40 64.02505 38.94876 18448 ft 400 kts 47°
2026-05-07 14:40 64.04182 38.99823 17992 ft 398 kts 47°
2026-05-07 14:40 64.05862 39.04798 17542 ft 394 kts 48°
2026-05-07 14:41 64.07321 39.10111 17200 ft 393 kts 59°
2026-05-07 14:41 64.08500 39.15699 16934 ft 387 kts 62°
2026-05-07 14:41 64.09606 39.21256 16665 ft 381 kts 63°
2026-05-07 14:41 64.10691 39.26744 16391 ft 377 kts 62°
2026-05-07 14:42 64.11778 39.32177 16123 ft 373 kts 62°
2026-05-07 14:42 64.12862 39.37533 15762 ft 369 kts 62°
2026-05-07 14:42 64.13947 39.42846 15365 ft 367 kts 62°
2026-05-07 14:42 64.15029 39.48123 14981 ft 365 kts 62°
2026-05-07 14:43 64.16104 39.53367 14592 ft 362 kts 62°
2026-05-07 14:43 64.17171 39.58575 14209 ft 359 kts 63°
2026-05-07 14:43 64.18229 39.63750 13823 ft 357 kts 63°
2026-05-07 14:43 64.19276 39.68889 13402 ft 354 kts 63°
2026-05-07 14:44 64.20312 39.73981 13014 ft 351 kts 63°
2026-05-07 14:44 64.21337 39.79036 12635 ft 347 kts 63°
2026-05-07 14:44 64.22338 39.83984 12261 ft 344 kts 63°
2026-05-07 14:44 64.23341 39.88947 11879 ft 342 kts 63°
2026-05-07 14:45 64.24337 39.93884 11505 ft 339 kts 63°
2026-05-07 14:45 64.25324 39.98797 11130 ft 337 kts 63°
2026-05-07 14:45 64.26300 40.03669 10773 ft 334 kts 64°
2026-05-07 14:45 64.27258 40.08468 10618 ft 325 kts 64°
2026-05-07 14:46 64.28181 40.13112 10501 ft 315 kts 64°
2026-05-07 14:46 64.29080 40.17642 10366 ft 306 kts 64°
2026-05-07 14:46 64.29954 40.22055 10236 ft 298 kts 64°
2026-05-07 14:46 64.30802 40.26342 10111 ft 291 kts 64°
2026-05-07 14:47 64.31632 40.30545 9883 ft 287 kts 64°
2026-05-07 14:47 64.32455 40.34720 9619 ft 284 kts 64°
2026-05-07 14:47 64.33268 40.38853 9330 ft 282 kts 64°
2026-05-07 14:47 64.34076 40.42967 9051 ft 281 kts 64°
2026-05-07 14:48 64.34878 40.47059 8771 ft 279 kts 64°
2026-05-07 14:48 64.35676 40.51145 8490 ft 277 kts 64°
2026-05-07 14:48 64.36466 40.55191 8217 ft 276 kts 65°
2026-05-07 14:48 64.37250 40.59218 7951 ft 274 kts 65°
2026-05-07 14:49 64.38021 40.63185 7676 ft 273 kts 65°
2026-05-07 14:49 64.38796 40.67183 7404 ft 272 kts 65°
2026-05-07 14:49 64.39566 40.71163 7137 ft 271 kts 65°
2026-05-07 14:49 64.40334 40.75137 6865 ft 270 kts 65°
2026-05-07 14:50 64.41098 40.79099 6603 ft 270 kts 65°
2026-05-07 14:50 64.41861 40.83067 6311 ft 270 kts 65°
2026-05-07 14:50 64.42622 40.87029 6018 ft 269 kts 65°
2026-05-07 14:50 64.43378 40.90972 5752 ft 267 kts 66°
2026-05-07 14:51 64.44128 40.94890 5484 ft 266 kts 66°
2026-05-07 14:51 64.44874 40.98794 5215 ft 264 kts 66°
2026-05-07 14:51 64.45614 41.02677 4950 ft 262 kts 66°
2026-05-07 14:51 64.46348 41.06540 4675 ft 261 kts 66°
2026-05-07 14:52 64.47096 41.10375 4396 ft 260 kts 60°
2026-05-07 14:52 64.48305 41.13400 4121 ft 256 kts 29°
2026-05-07 14:52 64.49923 41.14772 4075 ft 244 kts
2026-05-07 14:52 64.51573 41.15283 3961 ft 233 kts
2026-05-07 14:53 64.53144 41.15673 3826 ft 220 kts
2026-05-07 14:53 64.54587 41.16044 3769 ft 202 kts
2026-05-07 14:53 64.55962 41.16256 3486 ft 194 kts 350°
2026-05-07 14:53 64.57123 41.15011 3283 ft 179 kts 315°
2026-05-07 14:54 64.57817 41.12725 3079 ft 171 kts 290°
2026-05-07 14:54 64.58036 41.10087 2905 ft 163 kts 277°
2026-05-07 14:54 64.58202 41.07516 2744 ft 160 kts 281°
2026-05-07 14:54 64.58411 41.04951 2577 ft 162 kts 278°
2026-05-07 14:55 64.58563 41.02338 2392 ft 164 kts 277°
2026-05-07 14:55 64.58692 40.99715 2163 ft 162 kts 276°
2026-05-07 14:55 64.58813 40.97152 2051 ft 154 kts 276°
2026-05-07 14:55 64.58928 40.94678 1888 ft 153 kts 276°
2026-05-07 14:56 64.59042 40.92236 1670 ft 150 kts 276°
2026-05-07 14:56 64.59154 40.89850 1464 ft 147 kts 276°
2026-05-07 14:56 64.59267 40.87477 1265 ft 148 kts 276°
2026-05-07 14:56 64.59380 40.85083 1052 ft 149 kts 276°
2026-05-07 14:57 64.59494 40.82683 834 ft 149 kts 277°
2026-05-07 14:57 64.59608 40.80307 629 ft 150 kts 277°
2026-05-07 14:57 64.59724 40.77892 420 ft 150 kts 277°
2026-05-07 14:57 64.59841 40.75479 221 ft 149 kts 277°
2026-05-07 14:58 64.59957 40.73078 38 ft 146 kts 277°
2026-05-07 14:58 64.60056 40.71096 35 ft 93 kts 276°
2026-05-07 14:58 64.60095 40.70315 35 ft 11 kts 277°
2026-05-07 14:58 64.60053 40.70215 36 ft 9 kts 188°
2026-05-07 14:59 64.59991 40.70195 39 ft 8 kts 186°
2026-05-07 14:59 64.59937 40.70181 39 ft 8 kts 186°
2026-05-07 14:59 64.59891 40.70211 39 ft 7 kts 119°
2026-05-07 14:59 64.59881 40.70329 38 ft 7 kts 98°
2026-05-07 15:00 64.59875 40.70443 39 ft 7 kts 96°
2026-05-07 15:00 64.59870 40.70555 39 ft 7 kts 96°
2026-05-07 15:00 64.59865 40.70664 39 ft 7 kts 96°
2026-05-07 15:00 64.59860 40.70772 39 ft 7 kts 96°
2026-05-07 15:01 64.59855 40.70877 39 ft 6 kts 96°
2026-05-07 15:01 64.59850 40.70980 39 ft 6 kts 96°
2026-05-07 15:01 64.59845 40.71082 39 ft 6 kts 96°
2026-05-07 15:01 64.59840 40.71181 38 ft 6 kts 96°
2026-05-07 15:02 64.59826 40.71272 39 ft 6 kts 131°
2026-05-07 15:02 64.59785 40.71279 39 ft 6 kts 188°
2026-05-07 15:02 64.59745 40.71273 39 ft 6 kts 166°
2026-05-07 15:02 64.59723 40.71352 39 ft 6 kts 103°
2026-05-07 15:03 64.59717 40.71451 39 ft 6 kts 107°
2026-05-07 15:03 64.59704 40.71483 37 ft 2 kts 152°
2026-05-07 15:03 64.59689 40.71484 39 ft 2 kts 182°
2026-05-07 15:03 64.59671 40.71481 39 ft 2 kts 185°
2026-05-07 15:04 64.59664 40.71479 39 ft 0 kts 185°